This demonstration page uses our WeatherBlox Daily Observations layout. Learn more.

39.92423, -83.80882

Hourly Observations for June 26, 2017

Temp ( °F °C ) Dew Point ( °F °C ) Humidity (%) Winds ( mph kmh ) Pressure ( in mb ) Visibility ( mi km ) Precip ( " mm )
12:56 am 00:56 Partly Cloudy 57 13.9 53 11.7 87 87 WSW 5 7 30.11 1020 10 16.0934 0 0
1:56 am 01:56 Clear 55 12.8 52 11.1 90 90 SW 5 7 30.11 1020 10 16.0934 0 0
2:56 am 02:56 Mostly Clear 56 13.3 52 11.1 87 87 SSW 6 9 30.11 1020 10 16.0934 0 0
3:56 am 03:56 Mostly Cloudy 55 12.8 51 10.6 87 87 WSW 6 9 30.1 1019 10 16.0934 0 0
4:56 am 04:56 Clear 55 12.8 50 10 83 83 W 8 13 30.1 1019 10 16.0934 0 0
5:56 am 05:56 Clear 55 12.8 50 10 83 83 W 8 13 30.12 1020 10 16.0934 0 0
6:56 am 06:56 Sunny 55 12.8 50 10 83 83 W 7 11 30.13 1020 10 16.0934 0 0
7:56 am 07:56 Hazy 59 15 51 10.6 75 75 WNW 10 17 30.13 1020 3 4.82802 0 0
8:56 am 08:56 Sunny 62 16.7 52 11.1 70 70 WNW 10 17 30.14 1021 10 16.0934 0 0
9:56 am 09:56 Partly Cloudy 64 17.8 53 11.7 68 68 WNW 12 19 30.14 1021 10 16.0934 0 0
10:06 am 10:06 Mostly Cloudy 64 18 54 12 68 68 WNW 9 15 30.15 1021 10 16.0934 0 0
10:18 am 10:18 Partly Cloudy 64 18 52 11 64 64 WNW 16 26 30.15 1021 10 16.0934 0 0
10:56 am 10:56 Mostly Cloudy 66 18.9 52 11.1 61 61 WNW 16 26 30.14 1021 10 16.0934 0 0
11:56 am 11:56 Mostly Cloudy 68 20 50 10 53 53 WNW 15 24 30.14 1021 10 16.0934 0 0
12:56 pm 12:56 Mostly Sunny 69 20.6 49 9.4 49 49 WNW 14 22 30.14 1021 10 16.0934 0 0
1:56 pm 13:56 Partly Cloudy 70 21.1 47 8.3 44 44 W 14 22 30.11 1020 10 16.0934 0 0
2:56 pm 14:56 Mostly Cloudy 71 21.7 47 8.3 42 42 WNW 14 22 30.12 1020 10 16.0934 0 0
3:56 pm 15:56 Partly Cloudy 72 22.2 49 9.4 44 44 W 10 17 30.09 1019 10 16.0934 0 0
4:56 pm 16:56 Cloudy 70 21.1 47 8.3 44 44 W 13 20 30.08 1019 10 16.0934 0 0
5:56 pm 17:56 Cloudy 68 20 48 8.9 49 49 WSW 12 19 30.06 1018 10 16.0934 0 0
6:56 pm 18:56 Cloudy with Light Rain 61 16.1 54 12.2 78 78 WNW 9 15 30.06 1018 10 16.0934 0.02 0.508
7:56 pm 19:56 Cloudy 62 16.7 55 12.8 78 78 SW 6 9 30.06 1018 10 16.0934 0.01 0.254
8:56 pm 20:56 Mostly Sunny 62 16.7 55 12.8 78 78 WSW 5 7 30.05 1018 10 16.0934 0 0
9:56 pm 21:56 Mostly Clear 58 14.4 54 12.2 87 87 NNW 13 20 30.06 1018 10 16.0934 0 0
10:15 pm 22:15 Mostly Clear 57 14 48 9 72 72 NNW 13 20 30.06 1018 10 16.0934 0 0
10:56 pm 22:56 Mostly Cloudy 56 13.3 50 10 81 81 NNW 3 6 30.07 1018 10 16.0934 0 0
11:56 pm 23:56 Partly Cloudy 56 13.3 52 11.1 87 87 Calm 30.07 1018 10 16.0934 0 0

Powered by AerisWeather